Flag for U.S.A. Weather past 2 weeks in Houston, Texas, U.S.A.

Now
73 °F

Passing clouds.


Feels Like: 72 °F
Forecast: 72 / 87 °F
Wind: 8 mph from North

Location: Houston Hobby Airport

Current Time: Aug 2, 2014 at 4:00:16 AM

Latest Report: Aug 2, 2014 at 2:53 AM


Visibility: 10 mi

Pressure: 29.99 "Hg

Humidity: 84%

Dew point: 68 °F

Location of HoustonLocation

Historic Weather in Houston — Graph

°F

Houston temperature yesterday

Maximum temperature yesterday: 88 °F (at 2:53 PM)
Minimum temperature yesterday: 75 °F (at 5:53 AM)
Average temperature yesterday: 81 °F

Past Weeks' High & Low Weather Summary

 TemperatureHumidityPressure
High96 °F (Jul 28, 4:53 PM)94% (Jul 18, 4:53 AM)30.13 "Hg (Jul 18, 4:53 AM)
Low73 °F (Aug 2, 2:53 AM)38% (Jul 28, 5:53 PM)29.84 "Hg (Jul 18, 4:53 AM)
Average83 °F75%30.00 "Hg
* Reported Jul 18 2:53 AM — Aug 2 2:53 AM, Houston, Weather by CustomWeather, © 2014

Note: Actual official high and low records may vary slightly from our data, if they occured in-between our weather recording intervals... More about our weather records

Advertising

Houston weather history for previous 24 hours

 ConditionsComfort  
Time TempWeatherWind HumidityBarometerVisibility
2:53 AM
Aug 2
73 °FPassing clouds.8 mph84%29.99 "Hg10 mi
1:53 AM74 °FPassing clouds.8 mph82%29.98 "Hg10 mi
12:53 AM74 °FPassing clouds.7 mph85%29.99 "Hg10 mi
11:53 PM
Aug 1
76 °FPassing clouds.12 mph80%29.99 "Hg10 mi
10:53 PM77 °FPassing clouds.12 mph74%29.99 "Hg10 mi
9:53 PM79 °FPassing clouds.15 mph74%29.97 "Hg10 mi
8:53 PM82 °FScattered clouds.12 mph65%29.95 "Hg10 mi
7:53 PM84 °FScattered clouds.12 mph59%29.94 "Hg10 mi
6:53 PM86 °FPartly sunny.12 mph53%29.92 "Hg10 mi
5:53 PM87 °FBroken clouds.8 mph53%29.93 "Hg10 mi
4:53 PM87 °FMostly cloudy.12 mph57%29.94 "Hg10 mi
3:53 PM88 °FBroken clouds.10 mph57%29.95 "Hg10 mi
2:53 PM88 °FBroken clouds.10 mph57%29.97 "Hg10 mi
1:53 PM87 °FScattered clouds.9 mph61%29.98 "Hg10 mi
12:53 PM86 °FPartly sunny.9 mph63%29.99 "Hg10 mi
11:53 AM85 °FPartly sunny.7 mph68%29.99 "Hg10 mi
10:53 AM83 °FScattered clouds.7 mph74%29.99 "Hg10 mi
9:53 AM79 °FPartly sunny.5 mph82%29.99 "Hg10 mi
8:53 AM79 °FScattered clouds.7 mph82%29.99 "Hg10 mi
7:53 AM76 °FScattered clouds.No wind88%29.98 "Hg10 mi
6:53 AM75 °FPassing clouds.6 mph88%29.96 "Hg10 mi
5:53 AM75 °FMostly cloudy.8 mph90%29.96 "Hg10 mi
4:53 AM76 °FPassing clouds.13 mph91%29.95 "Hg10 mi
Weather by CustomWeather, © 2014

See weather overviewHow to use our weather pages